Regional Weather Roundup
Issued by NWS Wakefield, VA

Home | Current Version | Previous Version | Graphics & Text | Print | Product List | Glossary On
Versions: 1 2 3 4 5 6 7 8 9 10 11 12 13 14 15 16 17 18 19 20 21 22 23 24 25 26 27 28 29 30 31 32 33 34 35 36 37 38 39 40 41 42 43 44 45 46 47 48 49 50
000
ASUS41 KAKQ 171110
RWRAKQ

REGIONAL WEATHER ROUNDUP
NATIONAL WEATHER SERVICE WAKEFIELD VA
600 AM EST WED DEC 17 2014

Note: "fair" indicates few or no clouds below 12,000 feet with no
significant weather and/or obstructions to visibility. * = Denotes
station may not report precipitation (e.g., rain,snow,etc.),
thunder or fog.

VAZ042-051-052>054-056-171200-
NORTHERN VIRGINIA

CITY           SKY/WX    TMP DP  RH WIND       PRES   REMARKS
WASH NATIONAL  PTCLDY    41  36  82 SW6       29.95R
DULLES         PTCLDY    36  35  96 CALM      29.95R
FORT BELVOIR   FOG       39  39 100 SW1       29.96R VSB 1/2
QUANTICO       FOG       41  39  93 CALM      29.97S VSB 1/2
FREDERICKSBRG* FOG       42  42 100 CALM      29.96R VSB 1/2
STAFFORD*      FOG       39  39 100 CALM      30.00R VSB 1/4
WARRENTON      FOG       38  38 100 CALM      29.95R VSB 1/4
CULPEPER*      FOG       37  37 100 CALM      29.97R VSB 1/4
MANASSAS*      CLOUDY    37  37 100 W3        29.96R VSB 1/4
LEESBURG*      CLEAR     46  41  81 NW12G21   29.95R
WINCHESTER     CLOUDY    46  32  57 W7        29.94R
FRONT ROYAL*   CLOUDY    41  36  81 SW3       29.93R
LURAY*         CLOUDY    46  37  71 S7        29.95R
$$

VAZ048-049-060>072-079>083-171200-
CENTRAL AND SOUTH CENTRAL VIRGINIA

CITY           SKY/WX    TMP DP  RH WIND       PRES   REMARKS
RICHMOND       CLEAR     42  38  85 W6        29.97R
CHESTERFIELD*  SUNNY     39  28  65 W5        29.99R
PETERSBURG*    CLEAR     39  38  97 SW5       29.99R
HANOVER        FOG       34  34 100 CALM      29.99R VSB 1/2
TAPPAHANNOCK*  FOG       43  40  90 CALM      29.97R VSB 1/4
QUINTON*       CLOUDY    33  33 100 CALM      29.97R VSB 1/2
CHARLOTTSVILLE PTCLDY    45  35  68 SW6       29.96R
GORDONSVILLE*  MOSUNNY   31  31  99 CALM      29.96R
ORANGE*        CLEAR     32  32 100 CALM      29.97R
LOUISA*        CLEAR     37  37 100 W6        29.95R
BUMPASS*       SUNNY     35  35  99 W5        29.97R
FARMVILLE*     CLEAR     45  39  81 W7        29.98R
CREWE*         SUNNY     43  38  80 W5        29.99R
FORT PICKETT*  SUNNY     35  34  98 SW5       29.99R
CHASE CITY*    SUNNY     40  40 100 CALM      30.02R
CLARKSVILLE*   SUNNY     43  37  81 W6        30.02R
SOUTH HILL*    CLEAR     40  37  88 SW5       30.07R
LAWRENCEVILLE* SUNNY     40  38  95 CALM      30.00R
EMPORIA*       CLEAR     41  37  87 SW3       30.02R
$$

VAZ088>098-171200-
SOUTHEAST VIRGINIA

CITY           SKY/WX    TMP DP  RH WIND       PRES   REMARKS
NORFOLK        HAZE      44  42  93 W3        29.97R VSB 1/4
VIRGINIA BEACH FOG       46  44  93 W6        29.96R VSB 1/2
NORFOLK NAVAL  PTCLDY    45  41  86 W3        29.98R FOG
WEST POINT*    CLOUDY    44  42  94 W3        29.98R VSB 1/4
SALUDA*        CLOUDY    44  43  95 NW3       29.95S
NEWPORT NEWS   CLEAR     43  40  89 CALM      29.97R FOG
LANGLEY AFB    FOG       41  40  97 CALM      29.98R VSB 1/4
FORT EUSTIS    CLEAR     43 N/A N/A W2        29.96R
WILLIAMSBURG*  MOCLDY    43  39  87 CALM      29.98R
HR EXEC AP*      N/A     36  34  93 CALM      29.99R VSB<1/4
FRANKLIN*      CLEAR     39 N/A N/A W3        29.99R
WAKEFIELD      CLEAR     39  37  92 CALM      29.98R FOG
$$

VAZ020-022-025-037-045-171200-
WEST CENTRAL AND SOUTHWEST VIRGINIA

CITY           SKY/WX    TMP DP  RH WIND       PRES   REMARKS
STAUNTON*      CLOUDY    38  33  81 CALM      29.98R
WAYNESBORO*    PTSUNNY   43  35  72 W5        29.96R
HOT SPRINGS VA CLOUDY    34  34 100 W23       29.90R WCI  22
LYNCHBURG      CLOUDY    44  37  76 SW7       30.01R
DANVILLE       FLURRIES  37  33  85 W6        30.05R
SOUTH BOSTON*  SUNNY     40  37  87 W9        30.03R
MARTINSVILLE   MOCLDY    32  32 100 CALM      30.07S
ROANOKE        MOCLDY    46  34  62 W17G23    30.04R
BLACKSBURG     CLOUDY    40  33  77 W15G25    30.04S
DUBLIN*        CLOUDY    42  37  83 W13       30.05R
MARION*        CLOUDY    40  36  85 W17       30.07R
HILLSVILLE*    CLOUDY    39  35  85 W14G20    30.03R
RICHLANDS*     CLOUDY    37  33  85 W10G18    30.09R
WISE*          CLOUDY    37  37 100 W6        30.11R
ABINGDON*      CLOUDY    41  37  84 W8        30.11R
$$

MDZ021>025-VAZ099-100-171200-
SOUTHERN MARYLAND AND THE DELMARVA PENINSULA

CITY           SKY/WX    TMP DP  RH WIND       PRES   REMARKS
PATUXENT RIVER CLEAR     39  38  96 W3        29.95R FOG
BAY BRIDGE APT   N/A     41  41 100 W6        29.93R
LEONARDTOWN    MOCLDY    41  37  87 W6        29.96R
DOVER          CLEAR     41  41 100 W7        29.89R
GEORGETOWN     CLEAR     43  40  89 W3        29.92R FOG
EASTON         CLEAR     41  41 100 W5        29.97R FOG
CAMBRIDGE      CLEAR     43  39  87 W5        29.94R
SALISBURY      CLEAR     44  40  85 W6        29.93R
OCEAN CITY     CLEAR     43  41  93 NW5       29.92R FOG
WALLOPS ISLAND CLEAR     42  42 100 W3        29.94R FOG
ACCOMACK*      CLOUDY    43  41  93 W3        29.94S FOG
$$

NCZ012>017-030>032-171200-
NORTH CENTRAL AND EASTERN NORTH CAROLINA

CITY           SKY/WX    TMP DP  RH WIND       PRES   REMARKS
ROANOKE RAPIDS SUNNY     41  37  87 W5        30.01R
RALEIGH        CLEAR     44  36  73 W6        30.05R
ELIZABETH CITY CLEAR     45  41  86 W5        29.99R FOG
AHOSKIE*       CLEAR     38  37  98 CALM      30.01R FOG
EDENTON*         N/A     44  42  91 W5        30.00R
CURRITUCK*     CLOUDY    45  43  95 CALM      29.99R FOG
KILL DEVIL HLS CLOUDY    46  46  98 W8        29.98R FOG
MANTEO         CLOUDY    46  46  97 NW5       29.99R
CAPE HATTERAS  CLEAR     48  46  93 NW8G16    29.99R
TARBORO*         N/A     34  34  98 W5        30.04R FOG
GOLDSBORO      CLEAR     42  41  99 CALM      30.03R
WASHINGTON     CLEAR     43  40  90 CALM      30.03R
GREENVILLE     CLEAR     43  41  93 CALM      30.05R
NEW BERN       CLEAR     47  42  83 W6        30.05R
WILMINGTON     CLEAR     45  44  97 SW7       30.06R
$$

VAZ048-171200-
ELSEWHERE

CITY           SKY/WX    TMP DP  RH WIND       PRES   REMARKS
HARRISBURG PA  CLOUDY    40  39  97 CALM      29.89R FOG
BALTIMORE      CLEAR     40  37  89 SW6       29.92R
ANNAPOLIS      CLEAR     41  37  86 CALM      29.93R
ANDREWS AFB    CLEAR     40  38  92 SW5       29.93R
PHILADELPHIA   CLEAR     41  38  89 W8        29.89R
HENDERSON NC   CLEAR     42  36  78 W3        30.03R
GREENSBORO     PTCLDY    40  35  83 NW6       30.05S
ROCKY MOUNT    CLEAR     43  39  86 W5        30.04R
$$

VAZ100-171200-
MARINE

STATION/POSITION TIME  TEMP    WIND        PRES    WAVE   SWELL
                       AIR SEA DIR/SP/G            HT/PER HT/PER
                 (UTC) (F)     (DEG/KT/KT) (MB)    (FT/S) (FT/S)
CAPE MAY NJ      1100   43 45  300/  6/ 10 1012.0S
LEWES DE         1100   44 44  280/  6/  7 1012.4S
15NM E FENWICK I 1100   46 47              1012.3R   3/ 6
OCEAN-CITY-INLET 1100   45 46  310/  7/  8 1012.5S
WACHAPREAGUE VA  1100   44 45  270/  4/  6 1013.9S
THOMAS POINT MD  1100   43 42  270/  6/  7 1014.9R
GOOSES REEF MD   1100   44     VRB  6/  8  1013.0R
COVE POINT MD    1100   43     320/  7/  9 1013.8S
SOLOMONS ISLAND  1100      44                N/A
BISHOPS HEAD MD  1100   44 43  300/  9/  9 1013.4R
PINEY POINT MD   1100          330/ 12/ 13   N/A
POTOMAC MD       1100   44     310/ 12/ 14 1013.1R
CAMBRIDGE MD     1100   43 41  250/  6/  7 1013.5R
LEWISETTA VA     1100   44 44  300/  6/  7 1013.9R
RAPPAHANNOCK LGT 1100          290/  7/  8 1014.7R
STINGRAY PT      1100   45     290/  8/ 10 1014.7R
YORK RVR RNG VA  1100   45     340/  8/ 10 1014.0R
YORKTOWN VA      1100   45 46  300/  7/  8 1014.3R
JAMESTOWN VA     1100   43     280/  4/  4   N/A
DOMINION TERM VA 1100   45     290/  6/  7 1014.5R
KIPTOPEKE VA     1100      50  320/  7/ 10   N/A
CHES BAY BRIDGE  1100   46 46  270/  4/  5 1014.0S
CAPE HENRY VA    1100   46     280/  5/ 10 1013.2S
CHESAPEAKE LGHT  1000   47     320/ 10/ 11 1014.0R
WILLOUBY STN VA  1100   45     270/  4/  4 1015.1R
S CRANEY ISL VA  1100          240/  2/  4 1014.7R
CAPE HENRY BUOY  1100      48                N/A     2/11
1ST LANDING BUOY 1100   46     310/  4/  6 1014.1S
CAPE CHARLES BUO 1100      47                N/A     2/10   2/10
64NM E OF VA BCH 1100   50 54  320/ 16/ 17 1013.5R   4/ 4   2/ 7
DUCK PIER NC     1100   46 48  270/  6/  8 1014.5R
44100 DUCK FRF   1100      51                N/A     2/11   2/11
44056 DUCK FRF   1100      48                N/A     2/11
OREGON INLET NC  1100   47 51  290/  8/ 10 1015.4R
HATTERAS NC      1100   50 54  310/ 13/ 16 1015.6S
DIAMOND SHLS NC  1100   56                 1014.8R   6/ 8
CAPE LOOKOUT NC  1000   53     310/ 10/ 15 1015.8R
$$


USA.gov is the U.S. government's official web portal to all federal, state and local government web resources and services.